| time (UTC) | temp C | wind direction | speed KPH | gust KPH | rain 1hr cm | rain 24hr cm | rain mn cm | humidity % | barometer mb |
| 20260507014614 | 18 | 360 | 14.5 | 25.7 | 0.00 | 0.00 | 0.00 | 20 | 1017.4 |
| 20260507013056 | 18 | 360 | 14.5 | 24.1 | 0.00 | 0.00 | 0.00 | 19 | 1017.3 |
| 20260507011555 | 20 | 360 | 3.2 | 9.7 | 0.00 | 0.00 | 0.00 | 18 | 1017.1 |
| 20260507010109 | 20 | 360 | 6.4 | 16.1 | 0.00 | 0.00 | 0.00 | 19 | 1017.1 |
| 20260507004553 | 20 | 360 | 4.8 | 20.9 | 0.00 | 0.00 | 0.00 | 19 | 1016.8 |
| 20260507003054 | 21 | 360 | 6.4 | 17.7 | 0.00 | 0.00 | 0.00 | 18 | 1016.8 |
| 20260507001606 | 21 | 360 | 8.0 | 19.3 | 0.00 | 0.00 | 0.00 | 18 | 1016.8 |
| 20260507000055 | 21 | 360 | 8.0 | 24.1 | 0.00 | 0.00 | 0.00 | 19 | 1016.7 |
| 20260506234555 | 21 | 360 | 6.4 | 20.9 | 0.00 | 0.00 | 0.00 | 19 | 1016.7 |
| 20260506233057 | 22 | 360 | 4.8 | 19.3 | 0.00 | 0.00 | 0.00 | 20 | 1016.6 |
| 20260506231552 | 21 | 360 | 1.6 | 16.1 | 0.00 | 0.00 | 0.00 | 22 | 1016.6 |
| 20260506230103 | 21 | 360 | 6.4 | 20.9 | 0.00 | 0.00 | 0.00 | 21 | 1016.6 |
| 20260506224554 | 21 | 0 | 4.8 | 22.5 | 0.00 | 0.00 | 0.00 | 22 | 1016.6 |
| 20260506223052 | 22 | 360 | 6.4 | 16.1 | 0.00 | 0.00 | 0.00 | 22 | 1016.6 |
| 20260506221601 | 22 | 360 | 3.2 | 17.7 | 0.00 | 0.00 | 0.00 | 23 | 1016.6 |
| 20260506220057 | 21 | 360 | 6.4 | 20.9 | 0.00 | 0.00 | 0.00 | 24 | 1016.7 |
| 20260506214607 | 21 | 360 | 6.4 | 19.3 | 0.00 | 0.00 | 0.00 | 25 | 1016.9 |
| 20260506213106 | 21 | 360 | 8.0 | 29.0 | 0.00 | 0.00 | 0.00 | 25 | 1017.0 |
| 20260506211601 | 21 | 360 | 9.7 | 22.5 | 0.00 | 0.00 | 0.00 | 25 | 1017.0 |
| 20260506210055 | 21 | 360 | 8.0 | 20.9 | 0.00 | 0.00 | 0.00 | 27 | 1017.1 |
| 20260506204600 | 21 | 360 | 9.7 | 27.4 | 0.00 | 0.00 | 0.00 | 28 | 1017.1 |
| 20260506203106 | 20 | 360 | 8.0 | 19.3 | 0.00 | 0.00 | 0.00 | 26 | 1017.1 |
| 20260506201630 | 20 | 360 | 14.5 | 27.4 | 0.00 | 0.00 | 0.00 | 27 | 1017.1 |
| 20260506200054 | 20 | 360 | 8.0 | 19.3 | 0.00 | 0.00 | 0.00 | 27 | 1017.1 |
| 20260506194559 | 20 | 360 | 11.3 | 25.7 | 0.00 | 0.00 | 0.00 | 27 | 1017.1 |
| 20260506193102 | 20 | 360 | 11.3 | 25.7 | 0.00 | 0.00 | 0.00 | 26 | 1017.1 |
| 20260506191558 | 20 | 360 | 9.7 | 19.3 | 0.00 | 0.00 | 0.00 | 28 | 1017.0 |
| 20260506190054 | 20 | 360 | 6.4 | 20.9 | 0.00 | 0.00 | 0.00 | 29 | 1016.9 |
| 20260506184601 | 20 | 360 | 11.3 | 20.9 | 0.00 | 0.00 | 0.00 | 29 | 1017.2 |
| 20260506183055 | 18 | 360 | 6.4 | 24.1 | 0.00 | 0.00 | 0.00 | 32 | 1017.0 |
| 20260506181555 | 17 | 360 | 12.9 | 24.1 | 0.00 | 0.00 | 0.00 | 35 | 1017.0 |
| 20260506180056 | 18 | 360 | 9.7 | 22.5 | 0.00 | 0.00 | 0.00 | 34 | 1016.9 |
| 20260506174554 | 18 | 360 | 12.9 | 24.1 | 0.00 | 0.00 | 0.00 | 35 | 1016.9 |
| 20260506173113 | 18 | 360 | 8.0 | 20.9 | 0.00 | 0.00 | 0.00 | 37 | 1016.7 |
| 20260506171557 | 15 | 360 | 4.8 | 14.5 | 0.00 | 0.00 | 0.00 | 43 | 1016.5 |
| 20260506170057 | 16 | 360 | 9.7 | 17.7 | 0.00 | 0.00 | 0.00 | 42 | 1016.4 |
| 20260506164555 | 17 | 360 | 6.4 | 17.7 | 0.00 | 0.00 | 0.00 | 41 | 1016.2 |
| 20260506163109 | 16 | 360 | 4.8 | 12.9 | 0.00 | 0.00 | 0.00 | 43 | 1016.1 |
| 20260506161600 | 15 | 360 | 4.8 | 9.7 | 0.00 | 0.00 | 0.00 | 44 | 1015.9 |
| 20260506160057 | 15 | 360 | 3.2 | 8.0 | 0.00 | 0.00 | 0.00 | 46 | 1015.8 |
| 20260506154600 | 14 | 360 | 3.2 | 8.0 | 0.00 | 0.00 | 0.00 | 46 | 1015.9 |
| 20260506153052 | 13 | 360 | 1.6 | 6.4 | 0.00 | 0.00 | 0.00 | 47 | 1015.8 |
| 20260506151555 | 13 | 360 | 0.0 | 9.7 | 0.00 | 0.00 | 0.00 | 49 | 1015.8 |
| 20260506150053 | 12 | 0 | 1.6 | 6.4 | 0.00 | 0.00 | 0.00 | 50 | 1015.6 |
| 20260506144554 | 11 | 360 | 1.6 | 6.4 | 0.00 | 0.00 | 0.00 | 52 | 1015.5 |
| 20260506143053 | 10 | 0 | 0.0 | 4.8 | 0.00 | 0.00 | 0.00 | 56 | 1015.4 |
| 20260506141556 | 8 | 0 | 0.0 | 0.0 | 0.00 | 0.00 | 0.00 | 59 | 1015.3 |
| 20260506140100 | 7 | 0 | 0.0 | 0.0 | 0.00 | 0.00 | 0.00 | 60 | 1015.2 |
| 20260506134552 | 5 | 0 | 0.0 | 0.0 | 0.00 | 0.00 | 0.00 | 64 | 1014.7 |
| 20260506133101 | 3 | 0 | 0.0 | 0.0 | 0.00 | 0.00 | 0.00 | 66 | 1014.4 |
| 20260506131553 | 1 | 0 | 0.0 | 0.0 | 0.00 | 0.00 | 0.00 | 69 | 1014.2 |
| 20260506130054 | 1 | 0 | 0.0 | 0.0 | 0.00 | 0.00 | 0.00 | 70 | 1013.8 |
| 20260506124558 | 0 | 0 | 0.0 | 0.0 | 0.00 | 0.00 | 0.00 | 67 | 1013.5 |
| 20260506123051 | 1 | 0 | 0.0 | 0.0 | 0.00 | 0.00 | 0.00 | 69 | 1013.1 |
| 20260506121602 | 2 | 0 | 0.0 | 0.0 | 0.00 | 0.00 | 0.00 | 69 | 1013.0 |
| 20260506120108 | 2 | 0 | 0.0 | 0.0 | 0.00 | 0.00 | 0.00 | 68 | 1013.0 |
| 20260506114610 | 2 | 0 | 0.0 | 0.0 | 0.00 | 0.00 | 0.00 | 65 | 1012.7 |
| 20260506113054 | 2 | 0 | 0.0 | 4.8 | 0.00 | 0.00 | 0.00 | 63 | 1012.6 |
| 20260506111555 | 3 | 0 | 0.0 | 0.0 | 0.00 | 0.00 | 0.00 | 63 | 1012.6 |
| 20260506110054 | 4 | 0 | 0.0 | 4.8 | 0.00 | 0.00 | 0.00 | 62 | 1012.6 |
| 20260506104555 | 4 | 360 | 3.2 | 6.4 | 0.00 | 0.00 | 0.00 | 63 | 1012.4 |
| 20260506103052 | 5 | 360 | 1.6 | 6.4 | 0.00 | 0.00 | 0.00 | 60 | 1012.3 |
| 20260506101557 | 5 | 0 | 0.0 | 3.2 | 0.00 | 0.00 | 0.00 | 57 | 1012.4 |
| 20260506100057 | 5 | 360 | 1.6 | 4.8 | 0.00 | 0.00 | 0.00 | 53 | 1011.9 |
| 20260506094600 | 6 | 360 | 4.8 | 12.9 | 0.00 | 0.00 | 0.00 | 51 | 1011.8 |
| 20260506093113 | 7 | 360 | 12.9 | 17.7 | 0.00 | 0.00 | 0.00 | 50 | 1011.6 |
| 20260506091558 | 6 | 360 | 4.8 | 9.7 | 0.00 | 0.00 | 0.00 | 53 | 1011.4 |
| 20260506090121 | 6 | 360 | 6.4 | 9.7 | 0.00 | 0.00 | 0.00 | 52 | 1011.6 |
| 20260506084556 | 6 | 360 | 3.2 | 6.4 | 0.00 | 0.00 | 0.00 | 51 | 1011.8 |
| 20260506083101 | 5 | 360 | 1.6 | 4.8 | 0.00 | 0.00 | 0.00 | 50 | 1011.6 |
| 20260506081554 | 6 | 360 | 0.0 | 3.2 | 0.00 | 0.00 | 0.00 | 48 | 1011.6 |
| 20260506080107 | 6 | 360 | 0.0 | 3.2 | 0.00 | 0.00 | 0.00 | 48 | 1011.7 |
| 20260506073107 | 6 | 360 | 1.6 | 3.2 | 0.00 | 0.00 | 0.00 | 46 | 1011.4 |
| 20260506071557 | 8 | 360 | 0.0 | 3.2 | 0.00 | 0.00 | 0.00 | 43 | 1011.4 |
| 20260506061603 | 11 | 360 | 1.6 | 6.4 | 0.00 | 0.00 | 0.00 | 37 | 1010.7 |
| 20260506044604 | 13 | 360 | 11.3 | 17.7 | 0.00 | 0.00 | 0.00 | 37 | 1010.4 |
| 20260506043056 | 14 | 360 | 9.7 | 20.9 | 0.00 | 0.00 | 0.00 | 36 | 1010.2 |
| 20260506041608 | 13 | 360 | 4.8 | 9.7 | 0.00 | 0.00 | 0.00 | 38 | 1009.9 |
| 20260506034615 | 13 | 360 | 1.6 | 6.4 | 0.00 | 0.00 | 0.00 | 39 | 1009.5 |
| 20260506033057 | 13 | 360 | 0.0 | 4.8 | 0.00 | 0.00 | 0.00 | 38 | 1009.3 |
| 20260506031600 | 14 | 0 | 1.6 | 8.0 | 0.00 | 0.00 | 0.00 | 37 | 1009.0 |
| 20260506030055 | 14 | 360 | 0.0 | 6.4 | 0.00 | 0.00 | 0.00 | 38 | 1008.9 |
| 20260506024608 | 14 | 360 | 1.6 | 12.9 | 0.00 | 0.00 | 0.00 | 37 | 1008.7 |
| 20260506023056 | 15 | 360 | 6.4 | 14.5 | 0.00 | 0.00 | 0.00 | 36 | 1008.6 |
| 20260506021554 | 15 | 360 | 6.4 | 16.1 | 0.00 | 0.00 | 0.00 | 35 | 1008.3 |
| 20260506020122 | 15 | 360 | 3.2 | 16.1 | 0.00 | 0.00 | 0.00 | 35 | 1008.1 |